Regional Weather Roundup
Issued by NWS

Home | Current Version | Previous Version | Graphics & Text | Print | Product List | Glossary On
Versions: 1 2 3 4 5 6 7 8 9 10 11 12 13 14 15 16 17 18 19 20 21 22 23 24 25 26 27 28 29 30 31 32 33 34 35 36 37 38 39 40 41 42 43 44 45 46 47 48 49 50
000
ASUS43 KOAX 041910
RWRNE

WEATHER ROUNDUP FOR NEBRASKA
NATIONAL WEATHER SERVICE OMAHA NE
200 PM CDT MON MAY 04 2015

NOTES: SATELLITE DATA IS BEING USED TO AUGMENT CLOUD COVER ABOVE
       12000 FEET.
       "FAIR" INDICATES FEW OR NO CLOUDS BELOW 12,000 FEET WITH NO
       SIGNIFICANT WEATHER AND/OR OBSTRUCTIONS TO VISIBILITY.

  * THESE STATIONS DO NOT REPORT WEATHER SUCH AS RAIN...SNOW OR FOG.

NEZ001>004-019>022-054>056-042000-
NEBRASKA PANHANDLE

CITY           SKY/WX    TMP DP  RH WIND       PRES   REMARKS
SCOTTSBLUFF    CLOUDY    55  35  47 E13       30.15F
ALLIANCE       CLOUDY    55  33  43 E13       30.16F
CHADRON        CLOUDY    52  39  61 E8        30.18F
KIMBALL        LGT RAIN  51  42  73 E6        30.13F
SIDNEY         CLOUDY    60  41  49 NE13G20   30.14F
$$

NEZ057>060-069>072-079>082-042000-
SOUTHWEST NEBRASKA

CITY           SKY/WX    TMP DP  RH WIND       PRES   REMARKS
NORTH PLATTE   CLOUDY    54  39  57 E20       30.14R
IMPERIAL       LGT RAIN  53  46  77 NE6       30.14R
LEXINGTON      LGT RAIN  53  47  82 NE13      30.13S
MCCOOK         CLOUDY    58  42  55 NE17      30.11F
OGALLALA       CLOUDY    58  34  40 E13       30.15R
$$

NEZ005>010-023>029-035>040-094-042000-
NORTH CENTRAL NEBRASKA

CITY           SKY/WX    TMP DP  RH WIND       PRES   REMARKS
VALENTINE      LGT RAIN  66  24  20 E17       30.18F
AINSWORTH      CLOUDY    66  26  21 NE10G17   30.16F
BROKEN BOW     CLOUDY    63  29  27 NE20      30.12F
O`NEILL        CLOUDY    65  31  28 E13       30.15F
ORD            CLOUDY    65  36  34 E15G23    30.11F
THEDFORD       CLOUDY    64  29  27 E17       30.15F
$$

NEZ041-046>049-061>064-073>077-083>087-042000-
SOUTH CENTRAL NEBRASKA

CITY           SKY/WX    TMP DP  RH WIND       PRES   REMARKS
GRAND ISLAND   RAIN      53  50  89 NE12      30.11S FOG
AURORA         DRIZZLE   56  52  85 NE16      30.10F
HASTINGS       CLOUDY    55  49  80 NE12      30.10R
HEBRON         LGT RAIN  65  56  74 NE14      30.05S
HOLDREGE       CLOUDY    55  48  78 NE15      30.10S
KEARNEY *      CLOUDY    55  45  67 NE21      30.11S
YORK           RAIN      54  54 100 NE12      30.11S
$$

NEZ011>018-030>034-042>045-042000-
NORTHEAST NEBRASKA

CITY           SKY/WX    TMP DP  RH WIND       PRES   REMARKS
NORFOLK        CLOUDY    66  39  37 E14G22    30.12F
ALBION         RAIN      61  42  50 E10       30.14R
BLAIR          LGT RAIN  64  53  66 NE9       30.09R
COLUMBUS *     CLOUDY    57  46  67 NE15      30.13S
FREMONT        LGT RAIN  63  52  67 NE5       30.11R
TEKAMAH        CLOUDY    69  47  45 NE14      30.10F
WAYNE          CLOUDY    68  40  35 E18       30.14S
$$

NEZ050>053-065>068-078-088>093-042000-
SOUTHEAST NEBRASKA

CITY           SKY/WX    TMP DP  RH WIND       PRES   REMARKS
LINCOLN        LGT RAIN  60  54  80 N8        30.10R
OMAHA EPPLEY   LGT RAIN  66  57  72 N7        30.07F
BEATRICE       CLOUDY    67  60  78 NE12      30.04F
FALLS CITY     LGT RAIN  78  63  59 E9        30.02F
NEBRASKA CITY  CLOUDY    64  58  81 NE5       30.08S
PLATTSMOUTH    CLOUDY    64  56  77 NE5       30.10R
$$

NEZ044-045-051>053-067-042000-
OMAHA AREA

CITY           SKY/WX    TMP DP  RH WIND       PRES   REMARKS
OMAHA EPPLEY   LGT RAIN  66  57  72 N7        30.07F
BLAIR          LGT RAIN  64  53  66 NE9       30.09R
FREMONT        LGT RAIN  63  52  67 NE5       30.11R
MILLARD        LGT RAIN  65  57  73 CALM      30.09R
OFFUTT AFB     LGT RAIN  65  58  78 E5        30.08R
PLATTSMOUTH    CLOUDY    64  56  77 NE5       30.10R
$$


USA.gov is the U.S. government's official web portal to all federal, state and local government web resources and services.